Tracking 17560 objects as of 11-February-2016
HD Live streaming from Space Station
objects crossing your sky now

COSMOS 2286

Track COSMOS 2286 now!
COSMOS 2286 is classified as:


NORAD ID: 23194
Int'l Code: 1994-048A
Perigee: 3,693.7 km
Apogee: 36,661.0 km
Inclination: 67.6 °
Period: 717.5 minutes
Semi major axis: 26548 km
RCS: 14.1879 m2 (large)
Launch date: August 5, 1994
Source: Commonwealth of Independent States (former USSR) (CIS)
Launch site: PLESETSK MISSILE AND SPACE COMPLEX (PKMTR)
Your satellite tracking list
Your tracking list is empty





NASA's NSSDC Master Catalog

Two Line Element Set (TLE):
1 23194U 94048A   16040.34926069 +.00000712 +00000-0 +00000-0 0  9994
2 23194 067.5650 044.7471 6208922 191.3645 142.8776 02.0078666157637
Source of the keplerian elements: AFSPC

N2YO: 795